Weather History for Fortuna, CA

Change the Weather History Date:

Tuesday, October 9, 2012

  Actual Average (KEKA) Record (KEKA)
Temperature  
Mean Temperature 53 °F 55 °F  
Max Temperature 62 °F 62 °F 77 °F (1982)
Min Temperature 44 °F 48 °F 39 °F (1985)
Degree Days  
Heating Degree Days 12 10  
Month to date heating degree days 88  
Since 1 July heating degree days 753  
Cooling Degree Days 0 0  
Month to date cooling degree days 0  
Year to date cooling degree days 0  
Growing Degree Days 3 (Base 50)    
Moisture  
Dew Point 50 °F    
Average Humidity 95    
Maximum Humidity 100    
Minimum Humidity 72    
Precipitation  
Precipitation 0.00 in 0.05 in 2.67 in (1962)
Month to date precipitation 0.34  
Year to date precipitation 24.70  
Since 1 July precipitation 1.42  
Snow  
Snow - 0.00 in 0.00 in (2002)
Month to date snowfall 0.0  
Since 1 July snowfall 0.0  
Since 1 September snowfall 0.0  
Snow Depth -    
Sea Level Pressure  
Sea Level Pressure 30.04 in    
Wind  
Wind Speed 2 mph ()    
Max Wind Speed 15 mph    
Max Gust Speed 20 mph    
Visibility 5.8 miles    
Events      
T = Trace of Precipitation, MM = Missing Value Source: Averaged Metar Reports

Daily Weather History Graph

Daily Weather History Graph

Search for Another Location

Airport:

Trip Planner

Search our weather history database for the weather conditions in past years. The results will help you decide how hot, cold, wet, or windy it might be!

Date:

Astronomy

Oct. 09, 2012 Rise Set
Actual Time 7:21 AM PDT 6:44 PM PDT
Civil Twilight 6:54 AM PDT 7:12 PM PDT
Nautical Twilight 6:22 AM PDT 7:43 PM PDT
Astronomical Twilight 5:51 AM PDT 8:15 PM PDT
Moon 1:02 AM PDT (10/9) 3:16 PM PDT (10/9)
Length of Visible Light 12h 17m
Length of Day
11h 22m
Waning Crescent, 35% of the Moon is Illuminated
Oct 9
Waning Crescent
Oct 15
New
Oct 21
First Quarter
Oct 29
Full
Nov 6
Last Quarter

Hourly Weather History & Observations

Time (PDT) Temp. Dew Point Humidity Pressure Visibility Wind Dir Wind Speed Gust Speed Precip Events Conditions
12:35 AM 50.0 °F 50.0 °F 100% 30.07 in 10.0 mi Calm Calm - N/A   Overcast
12:55 AM 50.0 °F 50.0 °F 100% 30.07 in 10.0 mi Calm Calm - N/A   Overcast
1:15 AM 50.0 °F 50.0 °F 100% 30.06 in 10.0 mi Calm Calm - N/A   Overcast
1:35 AM 50.0 °F 50.0 °F 100% 30.06 in 9.0 mi Calm Calm - N/A   Overcast
1:55 AM 50.0 °F 50.0 °F 100% 30.06 in 9.0 mi Calm Calm - N/A   Mostly Cloudy
2:15 AM 50.0 °F 50.0 °F 100% 30.06 in 10.0 mi Calm Calm - N/A   Partly Cloudy
2:35 AM 48.2 °F 48.2 °F 100% 30.06 in 2.0 mi Calm Calm - N/A   Clear
2:55 AM 48.2 °F 48.2 °F 100% 30.06 in 1.2 mi Calm Calm - N/A   Clear
3:15 AM 48.2 °F 48.2 °F 100% 30.05 in 0.8 mi Calm Calm - N/A   Mostly Cloudy
3:35 AM 48.2 °F 48.2 °F 100% 30.05 in 0.8 mi Calm Calm - N/A   Overcast
3:55 AM 48.2 °F 48.2 °F 100% 30.05 in 3.0 mi Calm Calm - N/A   Overcast
4:15 AM 46.4 °F 46.4 °F 100% 30.05 in 0.2 mi Calm Calm - N/A   Overcast
4:35 AM 48.2 °F 48.2 °F 100% 30.05 in 0.2 mi Calm Calm - N/A   Overcast
4:55 AM 48.2 °F 48.2 °F 100% 30.05 in 0.2 mi Calm Calm - N/A   Overcast
5:15 AM 46.4 °F 46.4 °F 100% 30.05 in 0.2 mi Calm Calm - N/A   Overcast
5:35 AM 46.4 °F 46.4 °F 100% 30.05 in 0.2 mi Calm Calm - N/A   Overcast
5:55 AM 46.4 °F 46.4 °F 100% 30.05 in 0.2 mi Calm Calm - N/A   Overcast
6:15 AM 46.4 °F 46.4 °F 100% 30.05 in 0.2 mi Calm Calm - N/A   Overcast
6:35 AM 44.6 °F 44.6 °F 100% 30.06 in 0.2 mi Calm Calm - N/A   Mostly Cloudy
6:55 AM 44.6 °F 44.6 °F 100% 30.06 in 0.2 mi Calm Calm - N/A   Unknown
7:15 AM 44.6 °F 44.6 °F 100% 30.06 in 0.2 mi Calm Calm - N/A   Overcast
7:35 AM 44.6 °F 44.6 °F 100% 30.06 in 0.2 mi Calm Calm - N/A   Overcast
7:55 AM 44.6 °F 44.6 °F 100% 30.07 in 0.2 mi Calm Calm - N/A   Overcast
8:15 AM 46.4 °F 46.4 °F 100% 30.07 in 0.2 mi Calm Calm - N/A   Overcast
8:35 AM 46.4 °F 46.4 °F 100% 30.06 in 0.2 mi Calm Calm - N/A   Overcast
8:55 AM 46.4 °F 46.4 °F 100% 30.06 in 0.2 mi Calm Calm - N/A   Overcast
9:15 AM 48.2 °F 48.2 °F 100% 30.07 in 0.2 mi Calm Calm - N/A   Overcast
9:35 AM 46.4 °F 46.4 °F 100% 30.07 in 0.2 mi Calm Calm - N/A   Overcast
9:55 AM 48.2 °F 48.2 °F 100% 30.07 in 0.2 mi Calm Calm - N/A   Overcast
10:15 AM 48.2 °F 48.2 °F 100% 30.07 in 0.2 mi Calm Calm - N/A   Overcast
10:35 AM 48.2 °F 48.2 °F 100% 30.07 in 0.2 mi Calm Calm - N/A   Overcast
10:55 AM 48.2 °F 48.2 °F 100% 30.07 in 0.8 mi Calm Calm - N/A   Overcast
11:15 AM 50.0 °F 50.0 °F 100% 30.06 in 5.0 mi Calm Calm - N/A   Overcast
11:35 AM 50.0 °F 50.0 °F 100% 30.06 in 10.0 mi Calm Calm - N/A   Overcast
11:55 AM 53.6 °F 53.6 °F 100% 30.05 in 10.0 mi Calm Calm - N/A   Overcast
12:15 PM 55.4 °F 53.6 °F 94% 30.05 in 10.0 mi NNW 4.6 mph - N/A   Scattered Clouds
12:35 PM 57.2 °F 51.8 °F 82% 30.04 in 10.0 mi Calm Calm - N/A   Clear
12:55 PM 59.0 °F 51.8 °F 77% 30.04 in 10.0 mi NW 4.6 mph - N/A   Clear
1:15 PM 60.8 °F 53.6 °F 77% 30.03 in 10.0 mi WNW 10.4 mph - N/A   Clear
1:35 PM 62.6 °F 53.6 °F 72% 30.02 in 10.0 mi WNW 4.6 mph - N/A   Clear
1:55 PM 60.8 °F 51.8 °F 72% 30.02 in 10.0 mi WNW 12.7 mph - N/A   Clear
2:15 PM 59.0 °F 51.8 °F 77% 30.02 in 10.0 mi WNW 12.7 mph - N/A   Clear
2:35 PM 59.0 °F 53.6 °F 82% 30.02 in 10.0 mi WNW 11.5 mph - N/A   Clear
2:55 PM 59.0 °F 53.6 °F 82% 30.02 in 10.0 mi WNW 12.7 mph 16.1 mph N/A   Clear
3:15 PM 59.0 °F 53.6 °F 82% 30.02 in 10.0 mi WNW 11.5 mph - N/A   Clear
3:35 PM 59.0 °F 51.8 °F 77% 30.02 in 10.0 mi WNW 12.7 mph - N/A   Clear
3:55 PM 59.0 °F 51.8 °F 77% 30.02 in 10.0 mi WNW 13.8 mph 17.3 mph N/A   Clear
4:15 PM 59.0 °F 50.0 °F 72% 30.02 in 10.0 mi WNW 13.8 mph - N/A   Clear
4:35 PM 59.0 °F 51.8 °F 77% 30.01 in 10.0 mi WNW 15.0 mph 19.6 mph N/A   Clear
4:55 PM 59.0 °F 51.8 °F 77% 30.02 in 10.0 mi WNW 11.5 mph - N/A   Clear
5:15 PM 57.2 °F 53.6 °F 88% 30.02 in 10.0 mi WNW 11.5 mph - N/A   Clear
5:35 PM 57.2 °F 53.6 °F 88% 30.02 in 10.0 mi West 9.2 mph 16.1 mph N/A   Clear
5:55 PM 55.4 °F 51.8 °F 88% 30.02 in 10.0 mi WNW 10.4 mph - N/A   Clear
6:15 PM 55.4 °F 53.6 °F 94% 30.02 in 10.0 mi NW 10.4 mph - N/A   Clear
6:35 PM 53.6 °F 53.6 °F 100% 30.02 in 10.0 mi WNW 9.2 mph - N/A   Clear
6:55 PM 51.8 °F 51.8 °F 100% 30.03 in 10.0 mi Calm Calm - N/A   Clear
7:15 PM 51.8 °F 51.8 °F 100% 30.03 in 10.0 mi Calm Calm - N/A   Clear
7:35 PM 50.0 °F 50.0 °F 100% 30.03 in 10.0 mi Calm Calm - N/A   Clear
7:55 PM 50.0 °F 50.0 °F 100% 30.03 in 10.0 mi Calm Calm - N/A   Clear
8:15 PM 50.0 °F 50.0 °F 100% 30.03 in 10.0 mi Calm Calm - N/A   Clear
8:35 PM 50.0 °F 50.0 °F 100% 30.03 in 10.0 mi Calm Calm - N/A   Clear
8:55 PM 50.0 °F 50.0 °F 100% 30.04 in 10.0 mi Calm Calm - N/A   Clear
9:15 PM 48.2 °F 48.2 °F 100% 30.04 in 10.0 mi Calm Calm - N/A   Partly Cloudy
9:35 PM 50.0 °F 50.0 °F 100% 30.04 in 3.0 mi Calm Calm - N/A   Mostly Cloudy
9:55 PM 50.0 °F 50.0 °F 100% 30.04 in 0.8 mi Calm Calm - N/A   Overcast
10:15 PM 48.2 °F 48.2 °F 100% 30.04 in 5.0 mi Calm Calm - N/A   Mostly Cloudy
10:35 PM 50.0 °F 50.0 °F 100% 30.03 in 7.0 mi Calm Calm - N/A   Overcast
10:55 PM 50.0 °F 50.0 °F 100% 30.04 in 5.0 mi Calm Calm - N/A   Mostly Cloudy
11:15 PM 50.0 °F 50.0 °F 100% 30.04 in 4.0 mi Calm Calm - N/A   Overcast
11:35 PM 50.0 °F 50.0 °F 100% 30.03 in 6.0 mi Calm Calm - N/A   Overcast
11:55 PM 50.0 °F 50.0 °F 100% 30.02 in 7.0 mi Calm Calm - N/A   Overcast